Year,Month,Day,Hour,Minute,Value (Times are PST for temperature in C)
2011,07,23,00,00,11.30
2011,07,23,00,01,11.30
2011,07,23,00,02,11.30
2011,07,23,00,03,11.30
2011,07,23,00,04,11.30
2011,07,23,00,05,11.30
2011,07,23,00,06,11.20
2011,07,23,00,07,11.20
2011,07,23,00,08,11.20
2011,07,23,00,09,11.20
2011,07,23,00,10,11.20
2011,07,23,00,11,11.20
2011,07,23,00,12,11.20
2011,07,23,00,13,11.20
2011,07,23,00,14,11.20
2011,07,23,00,15,11.20
2011,07,23,00,16,11.20
2011,07,23,00,17,11.20
2011,07,23,00,18,11.20
2011,07,23,00,19,11.20
2011,07,23,00,20,11.20
2011,07,23,00,21,11.20
2011,07,23,00,22,11.20
2011,07,23,00,23,11.10
2011,07,23,00,24,11.10
2011,07,23,00,25,11.10
2011,07,23,00,26,11.10
2011,07,23,00,27,11.10
2011,07,23,00,28,11.10
2011,07,23,00,29,11.00
2011,07,23,00,30,11.00
2011,07,23,00,31,11.00
2011,07,23,00,32,11.00
2011,07,23,00,33,11.00
2011,07,23,00,34,10.90
2011,07,23,00,35,10.90
2011,07,23,00,36,10.90
2011,07,23,00,37,10.90
2011,07,23,00,38,10.80
2011,07,23,00,39,10.80
2011,07,23,00,40,10.80
2011,07,23,00,41,10.80
2011,07,23,00,42,10.80
2011,07,23,00,43,10.80
2011,07,23,00,44,10.80
2011,07,23,00,45,10.80
2011,07,23,00,46,10.80
2011,07,23,00,47,10.80
2011,07,23,00,48,10.80
2011,07,23,00,49,10.80
2011,07,23,00,50,10.80
2011,07,23,00,51,10.80
2011,07,23,00,52,10.80
2011,07,23,00,53,10.80
2011,07,23,00,54,10.80
2011,07,23,00,55,10.80
2011,07,23,00,56,10.70
2011,07,23,00,57,10.70
2011,07,23,00,58,10.70
2011,07,23,00,59,10.70
2011,07,23,01,00,10.70
2011,07,23,01,01,10.70
2011,07,23,01,02,10.60
2011,07,23,01,03,10.60
2011,07,23,01,04,10.60
2011,07,23,01,05,10.60
2011,07,23,01,06,10.60
2011,07,23,01,07,10.60
2011,07,23,01,08,10.60
2011,07,23,01,09,10.60
2011,07,23,01,10,10.60
2011,07,23,01,11,10.60
2011,07,23,01,12,10.60
2011,07,23,01,13,10.60
2011,07,23,01,14,10.60
2011,07,23,01,15,10.60
2011,07,23,01,16,10.60
2011,07,23,01,17,10.60
2011,07,23,01,18,10.60
2011,07,23,01,19,10.60
2011,07,23,01,20,10.60
2011,07,23,01,21,10.60
2011,07,23,01,22,10.60
2011,07,23,01,23,10.60
2011,07,23,01,24,10.50
2011,07,23,01,25,10.50
2011,07,23,01,26,10.50
2011,07,23,01,27,10.50
2011,07,23,01,28,10.40
2011,07,23,01,29,10.40
2011,07,23,01,30,10.40
2011,07,23,01,31,10.30
2011,07,23,01,32,10.30
2011,07,23,01,33,10.30
2011,07,23,01,34,10.30
2011,07,23,01,35,10.30
2011,07,23,01,36,10.30
2011,07,23,01,37,10.30
2011,07,23,01,38,10.30
2011,07,23,01,39,10.30
2011,07,23,01,40,10.20
2011,07,23,01,41,10.20
2011,07,23,01,42,10.20
2011,07,23,01,43,10.20
2011,07,23,01,44,10.20
2011,07,23,01,45,10.20
2011,07,23,01,46,10.20
2011,07,23,01,47,10.20
2011,07,23,01,48,10.20
2011,07,23,01,49,10.20
2011,07,23,01,50,10.10
2011,07,23,01,51,10.10
2011,07,23,01,52,10.10
2011,07,23,01,53,10.10
2011,07,23,01,54,10.20
2011,07,23,01,55,10.20
2011,07,23,01,56,10.20
2011,07,23,01,57,10.20
2011,07,23,01,58,10.30
2011,07,23,01,59,10.30
2011,07,23,02,00,10.30
2011,07,23,02,01,10.30
2011,07,23,02,02,10.30
2011,07,23,02,03,10.30
2011,07,23,02,04,10.30
2011,07,23,02,05,10.30
2011,07,23,02,06,10.30
2011,07,23,02,07,10.30
2011,07,23,02,08,10.30
2011,07,23,02,09,10.30
2011,07,23,02,10,10.30
2011,07,23,02,11,10.30
2011,07,23,02,12,10.30
2011,07,23,02,13,10.30
2011,07,23,02,14,10.30
2011,07,23,02,15,10.30
2011,07,23,02,16,10.20
2011,07,23,02,17,10.20
2011,07,23,02,18,10.20
2011,07,23,02,19,10.10
2011,07,23,02,20,10.10
2011,07,23,02,21,10.10
2011,07,23,02,22,10.10
2011,07,23,02,23,10.10
2011,07,23,02,24,10.10
2011,07,23,02,25,10.00
2011,07,23,02,26,10.00
2011,07,23,02,27,10.00
2011,07,23,02,28,9.90
2011,07,23,02,29,9.90
2011,07,23,02,30,9.90
2011,07,23,02,31,9.90
2011,07,23,02,32,9.90
2011,07,23,02,33,9.90
2011,07,23,02,34,9.90
2011,07,23,02,35,9.90
2011,07,23,02,36,9.90
2011,07,23,02,37,9.90
2011,07,23,02,38,9.90
2011,07,23,02,39,9.90
2011,07,23,02,40,9.90
2011,07,23,02,41,9.90
2011,07,23,02,42,9.90
2011,07,23,02,43,9.90
2011,07,23,02,44,9.80
2011,07,23,02,45,9.80
2011,07,23,02,46,9.80
2011,07,23,02,47,9.80
2011,07,23,02,48,9.80
2011,07,23,02,49,9.80
2011,07,23,02,50,9.80
2011,07,23,02,51,9.80
2011,07,23,02,52,9.80
2011,07,23,02,53,9.80
2011,07,23,02,54,9.80
2011,07,23,02,55,9.80
2011,07,23,02,56,9.70
2011,07,23,02,57,9.70
2011,07,23,02,58,9.70
2011,07,23,02,59,9.70
2011,07,23,03,00,9.70
2011,07,23,03,01,9.70
2011,07,23,03,02,9.70
2011,07,23,03,03,9.70
2011,07,23,03,04,9.70
2011,07,23,03,05,9.70
2011,07,23,03,06,9.60
2011,07,23,03,07,9.60
2011,07,23,03,08,9.60
2011,07,23,03,09,9.60
2011,07,23,03,10,9.60
2011,07,23,03,11,9.60
2011,07,23,03,12,9.60
2011,07,23,03,13,9.60
2011,07,23,03,14,9.60
2011,07,23,03,15,9.60
2011,07,23,03,16,9.60
2011,07,23,03,17,9.60
2011,07,23,03,18,9.60
2011,07,23,03,19,9.50
2011,07,23,03,20,9.50
2011,07,23,03,21,9.50
2011,07,23,03,22,9.50
2011,07,23,03,23,9.50
2011,07,23,03,24,9.50
2011,07,23,03,25,9.40
2011,07,23,03,26,9.40
2011,07,23,03,27,9.40
2011,07,23,03,28,9.40
2011,07,23,03,29,9.40
2011,07,23,03,30,9.40
2011,07,23,03,31,9.40
2011,07,23,03,32,9.40
2011,07,23,03,33,9.40
2011,07,23,03,34,9.30
2011,07,23,03,35,9.40
2011,07,23,03,36,9.40
2011,07,23,03,37,9.40
2011,07,23,03,38,9.40
2011,07,23,03,39,9.40
2011,07,23,03,40,9.40
2011,07,23,03,41,9.40
2011,07,23,03,42,9.40
2011,07,23,03,43,9.50
2011,07,23,03,44,9.50
2011,07,23,03,45,9.40
2011,07,23,03,46,9.40
2011,07,23,03,47,9.40
2011,07,23,03,48,9.40
2011,07,23,03,49,9.40
2011,07,23,03,50,9.40
2011,07,23,03,51,9.40
2011,07,23,03,52,9.40
2011,07,23,03,53,9.40
2011,07,23,03,54,9.40
2011,07,23,03,55,9.40
2011,07,23,03,56,9.40
2011,07,23,03,57,9.40
2011,07,23,03,58,9.40
2011,07,23,03,59,9.40
2011,07,23,04,00,9.40
2011,07,23,04,01,9.40
2011,07,23,04,02,9.40
2011,07,23,04,03,9.50
2011,07,23,04,04,9.50
2011,07,23,04,05,9.50
2011,07,23,04,06,9.50
2011,07,23,04,07,9.50
2011,07,23,04,08,9.40
2011,07,23,04,09,9.40
2011,07,23,04,10,9.40
2011,07,23,04,11,9.30
2011,07,23,04,12,9.30
2011,07,23,04,13,9.30
2011,07,23,04,14,9.30
2011,07,23,04,15,9.30
2011,07,23,04,16,9.30
2011,07,23,04,17,9.30
2011,07,23,04,18,9.30
2011,07,23,04,19,9.30
2011,07,23,04,20,9.30
2011,07,23,04,21,9.30
2011,07,23,04,22,9.20
2011,07,23,04,23,9.20
2011,07,23,04,24,9.20
2011,07,23,04,25,9.20
2011,07,23,04,26,9.20
2011,07,23,04,27,9.20
2011,07,23,04,28,9.20
2011,07,23,04,29,9.20
2011,07,23,04,30,9.20
2011,07,23,04,31,9.20
2011,07,23,04,32,9.20
2011,07,23,04,33,9.20
2011,07,23,04,34,9.20
2011,07,23,04,35,9.20
2011,07,23,04,36,9.20
2011,07,23,04,37,9.10
2011,07,23,04,38,9.10
2011,07,23,04,39,9.10
2011,07,23,04,40,9.10
2011,07,23,04,41,9.10
2011,07,23,04,42,9.10
2011,07,23,04,43,9.10
2011,07,23,04,44,9.10
2011,07,23,04,45,9.00
2011,07,23,04,46,9.00
2011,07,23,04,47,9.00
2011,07,23,04,48,9.00
2011,07,23,04,49,9.00
2011,07,23,04,50,9.00
2011,07,23,04,51,9.00
2011,07,23,04,52,9.00
2011,07,23,04,53,9.00
2011,07,23,04,54,9.00
2011,07,23,04,55,9.00
2011,07,23,04,56,9.00
2011,07,23,04,57,9.00
2011,07,23,04,58,9.00
2011,07,23,04,59,9.00
2011,07,23,05,00,8.90
2011,07,23,05,01,8.90
2011,07,23,05,02,8.90
2011,07,23,05,03,8.90
2011,07,23,05,04,8.90
2011,07,23,05,05,8.90
2011,07,23,05,06,8.90
2011,07,23,05,07,8.90
2011,07,23,05,08,8.90
2011,07,23,05,09,8.80
2011,07,23,05,10,8.80
2011,07,23,05,11,8.80
2011,07,23,05,12,8.80
2011,07,23,05,13,8.80
2011,07,23,05,14,8.80
2011,07,23,05,15,8.80
2011,07,23,05,16,8.80
2011,07,23,05,17,8.80
2011,07,23,05,18,8.80
2011,07,23,05,19,8.80
2011,07,23,05,20,8.80
2011,07,23,05,21,8.80
2011,07,23,05,22,8.80
2011,07,23,05,23,8.80
2011,07,23,05,24,8.80
2011,07,23,05,25,8.70
2011,07,23,05,26,8.70
2011,07,23,05,27,8.70
2011,07,23,05,28,8.70
2011,07,23,05,29,8.70
2011,07,23,05,30,8.70
2011,07,23,05,31,8.70
2011,07,23,05,32,8.70
2011,07,23,05,33,8.70
2011,07,23,05,34,8.70
2011,07,23,05,35,8.70
2011,07,23,05,36,8.70
2011,07,23,05,37,8.70
2011,07,23,05,38,8.70
2011,07,23,05,39,8.70
2011,07,23,05,40,8.70
2011,07,23,05,41,8.70
2011,07,23,05,42,8.70
2011,07,23,05,43,8.70
2011,07,23,05,44,8.70
2011,07,23,05,45,8.70
2011,07,23,05,46,8.60
2011,07,23,05,47,8.60
2011,07,23,05,48,8.60
2011,07,23,05,49,8.60
2011,07,23,05,50,8.70
2011,07,23,05,51,8.70
2011,07,23,05,52,8.70
2011,07,23,05,53,8.70
2011,07,23,05,54,8.70
2011,07,23,05,55,8.70
2011,07,23,05,56,8.80
2011,07,23,05,57,8.80
2011,07,23,05,58,8.80
2011,07,23,05,59,8.70
2011,07,23,06,00,8.70
2011,07,23,06,01,8.60
2011,07,23,06,02,8.60
2011,07,23,06,03,8.60
2011,07,23,06,04,8.60
2011,07,23,06,05,8.60
2011,07,23,06,06,8.60
2011,07,23,06,07,8.60
2011,07,23,06,08,8.60
2011,07,23,06,09,8.60
2011,07,23,06,10,8.60
2011,07,23,06,11,8.60
2011,07,23,06,12,8.60
2011,07,23,06,13,8.60
2011,07,23,06,14,8.60
2011,07,23,06,15,8.60
2011,07,23,06,16,8.60
2011,07,23,06,17,8.60
2011,07,23,06,18,8.50
2011,07,23,06,19,8.50
2011,07,23,06,20,8.50
2011,07,23,06,21,8.60
2011,07,23,06,22,8.60
2011,07,23,06,23,8.60
2011,07,23,06,24,8.60
2011,07,23,06,25,8.60
2011,07,23,06,26,8.60
2011,07,23,06,27,8.60
2011,07,23,06,28,8.60
2011,07,23,06,29,8.70
2011,07,23,06,30,8.70
2011,07,23,06,31,8.70
2011,07,23,06,32,8.70
2011,07,23,06,33,8.60
2011,07,23,06,34,8.70
2011,07,23,06,35,8.70
2011,07,23,06,36,8.70
2011,07,23,06,37,8.70
2011,07,23,06,38,8.70
2011,07,23,06,39,8.70
2011,07,23,06,40,8.70
2011,07,23,06,41,8.70
2011,07,23,06,42,8.80
2011,07,23,06,43,8.80
2011,07,23,06,44,8.80
2011,07,23,06,45,8.90
2011,07,23,06,46,8.90
2011,07,23,06,47,8.90
2011,07,23,06,48,8.90
2011,07,23,06,49,8.90
2011,07,23,06,50,8.90
2011,07,23,06,51,8.90
2011,07,23,06,52,9.00
2011,07,23,06,53,9.00
2011,07,23,06,54,9.00
2011,07,23,06,55,9.00
2011,07,23,06,56,9.00
2011,07,23,06,57,9.00
2011,07,23,06,58,9.00
2011,07,23,06,59,9.00
2011,07,23,07,00,9.00
2011,07,23,07,01,9.10
2011,07,23,07,02,9.10
2011,07,23,07,03,9.10
2011,07,23,07,04,9.20
2011,07,23,07,05,9.20
2011,07,23,07,06,9.20
2011,07,23,07,07,9.30
2011,07,23,07,08,9.30
2011,07,23,07,09,9.30
2011,07,23,07,10,9.30
2011,07,23,07,11,9.30
2011,07,23,07,12,9.30
2011,07,23,07,13,9.30
2011,07,23,07,14,9.30
2011,07,23,07,15,9.40
2011,07,23,07,16,9.40
2011,07,23,07,17,9.40
2011,07,23,07,18,9.40
2011,07,23,07,19,9.40
2011,07,23,07,20,9.40
2011,07,23,07,21,9.50
2011,07,23,07,22,9.50
2011,07,23,07,23,9.50
2011,07,23,07,24,9.50
2011,07,23,07,25,9.60
2011,07,23,07,26,9.60
2011,07,23,07,27,9.60
2011,07,23,07,28,9.60
2011,07,23,07,29,9.60
2011,07,23,07,30,9.70
2011,07,23,07,31,9.70
2011,07,23,07,32,9.70
2011,07,23,07,33,9.70
2011,07,23,07,34,9.70
2011,07,23,07,35,9.80
2011,07,23,07,36,9.80
2011,07,23,07,37,9.80
2011,07,23,07,38,9.80
2011,07,23,07,39,9.80
2011,07,23,07,40,9.80
2011,07,23,07,41,9.80
2011,07,23,07,42,9.80
2011,07,23,07,43,9.90
2011,07,23,07,44,9.90
2011,07,23,07,45,9.90
2011,07,23,07,46,9.90
2011,07,23,07,47,9.90
2011,07,23,07,48,10.00
2011,07,23,07,49,10.00
2011,07,23,07,50,10.00
2011,07,23,07,51,10.10
2011,07,23,07,52,10.10
2011,07,23,07,53,10.10
2011,07,23,07,54,10.20
2011,07,23,07,55,10.20
2011,07,23,07,56,10.30
2011,07,23,07,57,10.30
2011,07,23,07,58,10.30
2011,07,23,07,59,10.40
2011,07,23,08,00,10.40
2011,07,23,08,01,10.50
2011,07,23,08,02,10.50
2011,07,23,08,03,10.60
2011,07,23,08,04,10.60
2011,07,23,08,05,10.70
2011,07,23,08,06,10.70
2011,07,23,08,07,10.80
2011,07,23,08,08,10.80
2011,07,23,08,09,10.80
2011,07,23,08,10,10.80
2011,07,23,08,11,10.90
2011,07,23,08,12,10.90
2011,07,23,08,13,11.00
2011,07,23,08,14,11.10
2011,07,23,08,15,11.10
2011,07,23,08,16,11.20
2011,07,23,08,17,11.20
2011,07,23,08,18,11.30
2011,07,23,08,19,11.30
2011,07,23,08,20,11.40
2011,07,23,08,21,11.40
2011,07,23,08,22,11.50
2011,07,23,08,23,11.50
2011,07,23,08,24,11.60
2011,07,23,08,25,11.70
2011,07,23,08,26,11.70
2011,07,23,08,27,11.80
2011,07,23,08,28,11.90
2011,07,23,08,29,11.90
2011,07,23,08,30,12.00
2011,07,23,08,31,12.00
2011,07,23,08,32,12.10
2011,07,23,08,33,12.10
2011,07,23,08,34,12.20
2011,07,23,08,35,12.20
2011,07,23,08,36,12.30
2011,07,23,08,37,12.30
2011,07,23,08,38,12.40
2011,07,23,08,39,12.40
2011,07,23,08,40,12.40
2011,07,23,08,41,12.40
2011,07,23,08,42,12.50
2011,07,23,08,43,12.50
2011,07,23,08,44,12.60
2011,07,23,08,45,12.60
2011,07,23,08,46,12.60
2011,07,23,08,47,12.60
2011,07,23,08,48,12.60
2011,07,23,08,49,12.70
2011,07,23,08,50,12.70
2011,07,23,08,51,12.70
2011,07,23,08,52,12.70
2011,07,23,08,53,12.70
2011,07,23,08,54,12.80
2011,07,23,08,55,12.80
2011,07,23,08,56,12.80
2011,07,23,08,57,12.80
2011,07,23,08,58,12.80
2011,07,23,08,59,12.90
2011,07,23,09,00,12.90
2011,07,23,09,01,13.00
2011,07,23,09,02,13.10
2011,07,23,09,03,13.10
2011,07,23,09,04,13.10
2011,07,23,09,05,13.20
2011,07,23,09,06,13.20
2011,07,23,09,07,13.20
2011,07,23,09,08,13.30
2011,07,23,09,09,13.30
2011,07,23,09,10,13.30
2011,07,23,09,11,13.30
2011,07,23,09,12,13.40
2011,07,23,09,13,13.40
2011,07,23,09,14,13.50
2011,07,23,09,15,13.60
2011,07,23,09,16,13.70
2011,07,23,09,17,13.80
2011,07,23,09,18,13.80
2011,07,23,09,19,13.80
2011,07,23,09,20,13.90
2011,07,23,09,21,13.90
2011,07,23,09,22,13.90
2011,07,23,09,23,13.90
2011,07,23,09,24,14.00
2011,07,23,09,25,14.00
2011,07,23,09,26,14.00
2011,07,23,09,27,14.00
2011,07,23,09,28,14.10
2011,07,23,09,29,14.10
2011,07,23,09,30,14.10
2011,07,23,09,31,14.20
2011,07,23,09,32,14.20
2011,07,23,09,33,14.30
2011,07,23,09,34,14.30
2011,07,23,09,35,14.30
2011,07,23,09,36,14.30
2011,07,23,09,37,14.40
2011,07,23,09,38,14.40
2011,07,23,09,39,14.40
2011,07,23,09,40,14.40
2011,07,23,09,41,14.40
2011,07,23,09,42,14.40
2011,07,23,09,43,14.40
2011,07,23,09,44,14.40
2011,07,23,09,45,14.40
2011,07,23,09,46,14.50
2011,07,23,09,47,14.60
2011,07,23,09,48,14.60
2011,07,23,09,49,14.50
2011,07,23,09,50,14.50
2011,07,23,09,51,14.40
2011,07,23,09,52,14.40
2011,07,23,09,53,14.40
2011,07,23,09,54,14.50
2011,07,23,09,55,14.60
2011,07,23,09,56,14.60
2011,07,23,09,57,14.60
2011,07,23,09,58,14.60
2011,07,23,09,59,14.70
2011,07,23,10,00,14.70
2011,07,23,10,01,14.80
2011,07,23,10,02,14.80
2011,07,23,10,03,14.90
2011,07,23,10,04,15.00
2011,07,23,10,05,15.10
2011,07,23,10,06,15.20
2011,07,23,10,07,15.30
2011,07,23,10,08,15.30
2011,07,23,10,09,15.40
2011,07,23,10,10,15.50
2011,07,23,10,11,15.50
2011,07,23,10,12,15.60
2011,07,23,10,13,15.60
2011,07,23,10,14,15.60
2011,07,23,10,15,15.70
2011,07,23,10,16,15.70
2011,07,23,10,17,15.60
2011,07,23,10,18,15.60
2011,07,23,10,19,15.50
2011,07,23,10,20,15.30
2011,07,23,10,21,15.20
2011,07,23,10,22,15.10
2011,07,23,10,23,15.00
2011,07,23,10,24,14.90
2011,07,23,10,25,14.80
2011,07,23,10,26,14.80
2011,07,23,10,27,14.80
2011,07,23,10,28,14.80
2011,07,23,10,29,14.80
2011,07,23,10,30,14.80
2011,07,23,10,31,14.80
2011,07,23,10,32,14.70
2011,07,23,10,33,14.70
2011,07,23,10,34,14.70
2011,07,23,10,35,14.70
2011,07,23,10,36,14.70
2011,07,23,10,37,14.70
2011,07,23,10,38,14.70
2011,07,23,10,39,14.70
2011,07,23,10,40,14.70
2011,07,23,10,41,14.70
2011,07,23,10,42,14.70
2011,07,23,10,43,14.70
2011,07,23,10,44,14.70
2011,07,23,10,45,14.70
2011,07,23,10,46,14.70
2011,07,23,10,47,14.70
2011,07,23,10,48,14.70
2011,07,23,10,49,14.70
2011,07,23,10,50,14.80
2011,07,23,10,51,14.90
2011,07,23,10,52,15.00
2011,07,23,10,53,15.10
2011,07,23,10,54,15.20
2011,07,23,10,55,15.40
2011,07,23,10,56,15.40
2011,07,23,10,57,15.40
2011,07,23,10,58,15.40
2011,07,23,10,59,15.40
2011,07,23,11,00,15.30
2011,07,23,11,01,15.30
2011,07,23,11,02,15.30
2011,07,23,11,03,15.20
2011,07,23,11,04,15.20
2011,07,23,11,05,15.20
2011,07,23,11,06,15.20
2011,07,23,11,07,15.20
2011,07,23,11,08,15.10
2011,07,23,11,09,15.00
2011,07,23,11,10,15.00
2011,07,23,11,11,15.00
2011,07,23,11,12,15.10
2011,07,23,11,13,15.10
2011,07,23,11,14,15.10
2011,07,23,11,15,15.20
2011,07,23,11,16,15.20
2011,07,23,11,17,15.20
2011,07,23,11,18,15.20
2011,07,23,11,19,15.20
2011,07,23,11,20,15.30
2011,07,23,11,21,15.30
2011,07,23,11,22,15.30
2011,07,23,11,23,15.40
2011,07,23,11,24,15.40
2011,07,23,11,25,15.40
2011,07,23,11,26,15.30
2011,07,23,11,27,15.30
2011,07,23,11,28,15.30
2011,07,23,11,29,15.30
2011,07,23,11,30,15.30
2011,07,23,11,31,15.30
2011,07,23,11,32,15.30
2011,07,23,11,33,15.20
2011,07,23,11,34,15.20
2011,07,23,11,35,15.10
2011,07,23,11,36,15.10
2011,07,23,11,37,15.20
2011,07,23,11,38,15.20
2011,07,23,11,39,15.20
2011,07,23,11,40,15.20
2011,07,23,11,41,15.20
2011,07,23,11,42,15.20
2011,07,23,11,43,15.30
2011,07,23,11,44,15.30
2011,07,23,11,45,15.40
2011,07,23,11,46,15.40
2011,07,23,11,47,15.40
2011,07,23,11,48,15.50
2011,07,23,11,49,15.50
2011,07,23,11,50,15.60
2011,07,23,11,51,15.70
2011,07,23,11,52,15.80
2011,07,23,11,53,16.00
2011,07,23,11,54,16.20
2011,07,23,11,55,16.30
2011,07,23,11,56,16.40
2011,07,23,11,57,16.50
2011,07,23,11,58,16.60
2011,07,23,11,59,16.70
2011,07,23,12,00,16.70
2011,07,23,12,01,16.80
2011,07,23,12,02,16.90
2011,07,23,12,03,17.00
2011,07,23,12,04,17.10
2011,07,23,12,05,17.20
2011,07,23,12,06,17.20
2011,07,23,12,07,17.20
2011,07,23,12,08,17.10
2011,07,23,12,09,17.00
2011,07,23,12,10,16.90
2011,07,23,12,11,16.70
2011,07,23,12,12,16.60
2011,07,23,12,13,16.50
2011,07,23,12,14,16.40
2011,07,23,12,15,16.20
2011,07,23,12,16,16.10
2011,07,23,12,17,16.00
2011,07,23,12,18,15.90
2011,07,23,12,19,15.90
2011,07,23,12,20,15.80
2011,07,23,12,21,15.70
2011,07,23,12,22,15.70
2011,07,23,12,23,15.60
2011,07,23,12,24,15.60
2011,07,23,12,25,15.60
2011,07,23,12,26,15.50
2011,07,23,12,27,15.60
2011,07,23,12,28,15.60
2011,07,23,12,29,15.70
2011,07,23,12,30,15.70
2011,07,23,12,31,15.80
2011,07,23,12,32,15.80
2011,07,23,12,33,15.90
2011,07,23,12,34,16.00
2011,07,23,12,35,16.00
2011,07,23,12,36,16.10
2011,07,23,12,37,16.20
2011,07,23,12,38,16.30
2011,07,23,12,39,16.30
2011,07,23,12,40,16.40
2011,07,23,12,41,16.40
2011,07,23,12,42,16.40
2011,07,23,12,43,16.40
2011,07,23,12,44,16.40
2011,07,23,12,45,16.40
2011,07,23,12,46,16.40
2011,07,23,12,47,16.30
2011,07,23,12,48,16.40
2011,07,23,12,49,16.40
2011,07,23,12,50,16.40
2011,07,23,12,51,16.50
2011,07,23,12,52,16.60
2011,07,23,12,53,16.70
2011,07,23,12,54,16.80
2011,07,23,12,55,16.80
2011,07,23,12,56,16.90
2011,07,23,12,57,17.00
2011,07,23,12,58,17.10
2011,07,23,12,59,17.20
2011,07,23,13,00,17.10
2011,07,23,13,01,17.10
2011,07,23,13,02,17.10
2011,07,23,13,03,17.10
2011,07,23,13,04,17.00
2011,07,23,13,05,16.90
2011,07,23,13,06,16.80
2011,07,23,13,07,16.80
2011,07,23,13,08,16.80
2011,07,23,13,09,16.80
2011,07,23,13,10,16.70
2011,07,23,13,11,16.60
2011,07,23,13,12,16.60
2011,07,23,13,13,16.60
2011,07,23,13,14,16.60
2011,07,23,13,15,16.60
2011,07,23,13,16,16.60
2011,07,23,13,17,16.50
2011,07,23,13,18,16.50
2011,07,23,13,19,16.50
2011,07,23,13,20,16.50
2011,07,23,13,21,16.50
2011,07,23,13,22,16.50
2011,07,23,13,23,16.40
2011,07,23,13,24,16.40
2011,07,23,13,25,16.30
2011,07,23,13,26,16.20
2011,07,23,13,27,16.20
2011,07,23,13,28,16.20
2011,07,23,13,29,16.20
2011,07,23,13,30,16.30
2011,07,23,13,31,16.30
2011,07,23,13,32,16.40
2011,07,23,13,33,16.40
2011,07,23,13,34,16.50
2011,07,23,13,35,16.50
2011,07,23,13,36,16.40
2011,07,23,13,37,16.30
2011,07,23,13,38,16.20
2011,07,23,13,39,16.10
2011,07,23,13,40,16.00
2011,07,23,13,41,15.90
2011,07,23,13,42,15.90
2011,07,23,13,43,16.00
2011,07,23,13,44,16.10
2011,07,23,13,45,16.20
2011,07,23,13,46,16.30
2011,07,23,13,47,16.30
2011,07,23,13,48,16.30
2011,07,23,13,49,16.30
2011,07,23,13,50,16.30
2011,07,23,13,51,16.40
2011,07,23,13,52,16.40
2011,07,23,13,53,16.50
2011,07,23,13,54,16.50
2011,07,23,13,55,16.60
2011,07,23,13,56,16.70
2011,07,23,13,57,16.80
2011,07,23,13,58,16.80
2011,07,23,13,59,16.80
2011,07,23,14,00,16.90
2011,07,23,14,01,16.80
2011,07,23,14,02,16.60
2011,07,23,14,03,16.40
2011,07,23,14,04,16.30
2011,07,23,14,05,16.20
2011,07,23,14,06,16.20
2011,07,23,14,07,16.20
2011,07,23,14,08,16.20
2011,07,23,14,09,16.20
2011,07,23,14,10,16.20
2011,07,23,14,11,16.10
2011,07,23,14,12,16.00
2011,07,23,14,13,15.90
2011,07,23,14,14,15.80
2011,07,23,14,15,15.80
2011,07,23,14,16,15.80
2011,07,23,14,17,15.70
2011,07,23,14,18,15.60
2011,07,23,14,19,15.50
2011,07,23,14,20,15.40
2011,07,23,14,21,15.30
2011,07,23,14,22,15.30
2011,07,23,14,23,15.30
2011,07,23,14,24,15.30
2011,07,23,14,25,15.20
2011,07,23,14,26,15.20
2011,07,23,14,27,15.20
2011,07,23,14,28,15.10
2011,07,23,14,29,15.00
2011,07,23,14,30,15.00
2011,07,23,14,31,14.90
2011,07,23,14,32,14.90
2011,07,23,14,33,14.90
2011,07,23,14,34,14.90
2011,07,23,14,35,14.90
2011,07,23,14,36,15.00
2011,07,23,14,37,15.10
2011,07,23,14,38,15.20
2011,07,23,14,39,15.30
2011,07,23,14,40,15.40
2011,07,23,14,41,15.40
2011,07,23,14,42,15.40
2011,07,23,14,43,15.40
2011,07,23,14,44,15.50
2011,07,23,14,45,15.50
2011,07,23,14,46,15.60
2011,07,23,14,47,15.70
2011,07,23,14,48,15.80
2011,07,23,14,49,15.90
2011,07,23,14,50,16.00
2011,07,23,14,51,16.00
2011,07,23,14,52,16.00
2011,07,23,14,53,16.00
2011,07,23,14,54,15.90
2011,07,23,14,55,15.90
2011,07,23,14,56,15.80
2011,07,23,14,57,15.80
2011,07,23,14,58,15.80
2011,07,23,14,59,15.80
2011,07,23,15,00,15.80
2011,07,23,15,01,15.80
2011,07,23,15,02,15.90
2011,07,23,15,03,16.00
2011,07,23,15,04,16.10
2011,07,23,15,05,16.10
2011,07,23,15,06,16.20
2011,07,23,15,07,16.30
2011,07,23,15,08,16.40
2011,07,23,15,09,16.50
2011,07,23,15,10,16.60
2011,07,23,15,11,16.70
2011,07,23,15,12,16.80
2011,07,23,15,13,16.90
2011,07,23,15,14,17.00
2011,07,23,15,15,17.10
2011,07,23,15,16,17.10
2011,07,23,15,17,17.10
2011,07,23,15,18,17.10
2011,07,23,15,19,17.10
2011,07,23,15,20,17.00
2011,07,23,15,21,17.00
2011,07,23,15,22,17.00
2011,07,23,15,23,17.00
2011,07,23,15,24,17.00
2011,07,23,15,25,17.10
2011,07,23,15,26,17.00
2011,07,23,15,27,17.00
2011,07,23,15,28,17.00
2011,07,23,15,29,17.10
2011,07,23,15,30,17.20
2011,07,23,15,31,17.20
2011,07,23,15,32,17.20
2011,07,23,15,33,17.20
2011,07,23,15,34,17.10
2011,07,23,15,35,17.10
2011,07,23,15,36,17.10
2011,07,23,15,37,17.10
2011,07,23,15,38,17.00
2011,07,23,15,39,17.00
2011,07,23,15,40,17.00
2011,07,23,15,41,17.00
2011,07,23,15,42,17.00
2011,07,23,15,43,17.00
2011,07,23,15,44,17.00
2011,07,23,15,45,17.10
2011,07,23,15,46,17.20
2011,07,23,15,47,17.30
2011,07,23,15,48,17.30
2011,07,23,15,49,17.40
2011,07,23,15,50,17.40
2011,07,23,15,51,17.50
2011,07,23,15,52,17.50
2011,07,23,15,53,17.40
2011,07,23,15,54,17.30
2011,07,23,15,55,17.20
2011,07,23,15,56,17.20
2011,07,23,15,57,17.20
2011,07,23,15,58,17.20
2011,07,23,15,59,17.10
2011,07,23,16,00,17.10
2011,07,23,16,01,17.10
2011,07,23,16,02,17.10
2011,07,23,16,03,17.10
2011,07,23,16,04,17.00
2011,07,23,16,05,17.00
2011,07,23,16,06,16.90
2011,07,23,16,07,16.90
2011,07,23,16,08,16.90
2011,07,23,16,09,16.80
2011,07,23,16,10,16.70
2011,07,23,16,11,16.70
2011,07,23,16,12,16.70
2011,07,23,16,13,16.70
2011,07,23,16,14,16.70
2011,07,23,16,15,16.70
2011,07,23,16,16,16.80
2011,07,23,16,17,16.90
2011,07,23,16,18,16.90
2011,07,23,16,19,17.00
2011,07,23,16,20,17.10
2011,07,23,16,21,17.20
2011,07,23,16,22,17.20
2011,07,23,16,23,17.30
2011,07,23,16,24,17.40
2011,07,23,16,25,17.50
2011,07,23,16,26,17.50
2011,07,23,16,27,17.60
2011,07,23,16,28,17.70
2011,07,23,16,29,17.70
2011,07,23,16,30,17.60
2011,07,23,16,31,17.50
2011,07,23,16,32,17.40
2011,07,23,16,33,17.30
2011,07,23,16,34,17.20
2011,07,23,16,35,17.10
2011,07,23,16,36,17.00
2011,07,23,16,37,16.90
2011,07,23,16,38,16.90
2011,07,23,16,39,16.80
2011,07,23,16,40,16.80
2011,07,23,16,41,16.70
2011,07,23,16,42,16.70
2011,07,23,16,43,16.80
2011,07,23,16,44,16.90
2011,07,23,16,45,17.10
2011,07,23,16,46,17.40
2011,07,23,16,47,17.60
2011,07,23,16,48,17.70
2011,07,23,16,49,17.80
2011,07,23,16,50,17.90
2011,07,23,16,51,18.00
2011,07,23,16,52,18.10
2011,07,23,16,53,18.20
2011,07,23,16,54,18.00
2011,07,23,16,55,18.00
2011,07,23,16,56,17.90
2011,07,23,16,57,17.80
2011,07,23,16,58,17.60
2011,07,23,16,59,17.40
2011,07,23,17,00,17.30
2011,07,23,17,01,17.30
2011,07,23,17,02,17.30
2011,07,23,17,03,17.20
2011,07,23,17,04,17.20
2011,07,23,17,05,17.20
2011,07,23,17,06,17.10
2011,07,23,17,07,17.10
2011,07,23,17,08,17.20
2011,07,23,17,09,17.30
2011,07,23,17,10,17.30
2011,07,23,17,11,17.30
2011,07,23,17,12,17.20
2011,07,23,17,13,17.20
2011,07,23,17,14,17.30
2011,07,23,17,15,17.30
2011,07,23,17,16,17.40
2011,07,23,17,17,17.50
2011,07,23,17,18,17.60
2011,07,23,17,19,17.50
2011,07,23,17,20,17.50
2011,07,23,17,21,17.50
2011,07,23,17,22,17.40
2011,07,23,17,23,17.40
2011,07,23,17,24,17.40
2011,07,23,17,25,17.40
2011,07,23,17,26,17.40
2011,07,23,17,27,17.40
2011,07,23,17,28,17.40
2011,07,23,17,29,17.40
2011,07,23,17,30,17.40
2011,07,23,17,31,17.40
2011,07,23,17,32,17.40
2011,07,23,17,33,17.40